Location: Baia Mare
(47.6567°N, 23.5850°E)
Time: 17:35:58
(UTC+02:00)

ISS - Pass Details

Date: 06 February 2019
Orbit: 406 x 411 km, 51.6° (Epoch: 21 March)

Event Time Altitude Azimuth Distance (km) Brightness Sun altitude
Rises 18:35:53 0° 293° (WNW) 2,349 1.0 -10.8°
Reaches altitude 10° 18:37:58 10° 294° (WNW) 1,486 -0.1 -11.1°
Maximum altitude 18:41:19 90° 183° (S) 418 -3.8 -11.7°
Enters shadow 18:43:54 16° 115° (ESE) 1,185 -2.0 -12.1°
